TimeCDT,TemperatureF,Dew PointF,Humidity,Sea Level PressureIn,VisibilityMPH,Wind Direction,Wind SpeedMPH,Gust SpeedMPH,PrecipitationIn,Events,Conditions,WindDirDegrees,DateUTC
12:15 AM,28.6,14.7,56,30.34,10.0,Calm,Calm,-,N/A,,Clear,0,2013-03-26 05:15:00
12:35 AM,27.7,14.9,59,30.34,10.0,SSE,3.5,-,N/A,,Clear,160,2013-03-26 05:35:00
12:55 AM,23.4,14.5,69,30.34,10.0,South,5.8,-,N/A,,Clear,190,2013-03-26 05:55:00
1:15 AM,23.2,14.9,71,30.34,10.0,South,5.8,-,N/A,,Clear,190,2013-03-26 06:15:00
1:35 AM,23.2,15.1,71,30.35,10.0,East,5.8,-,N/A,,Clear,80,2013-03-26 06:35:00
1:55 AM,23.0,14.9,71,30.34,10.0,ENE,10.4,-,N/A,,Clear,70,2013-03-26 06:55:00
2:15 AM,23.5,14.9,70,30.35,10.0,East,6.9,-,N/A,,Clear,90,2013-03-26 07:15:00
2:35 AM,23.7,14.9,69,30.35,10.0,South,6.9,-,N/A,,Clear,170,2013-03-26 07:35:00
2:55 AM,20.7,13.8,75,30.35,10.0,SSE,6.9,-,N/A,,Clear,160,2013-03-26 07:55:00
3:15 AM,21.0,14.4,75,30.34,10.0,SE,6.9,-,N/A,,Clear,130,2013-03-26 08:15:00
3:35 AM,23.9,14.5,67,30.34,10.0,ESE,5.8,-,N/A,,Clear,120,2013-03-26 08:35:00
3:55 AM,23.4,14.5,69,30.34,10.0,SE,9.2,-,N/A,,Clear,140,2013-03-26 08:55:00
4:15 AM,23.2,13.1,65,30.33,10.0,SE,8.1,-,N/A,,Clear,140,2013-03-26 09:15:00
4:35 AM,22.6,12.2,64,30.33,10.0,SE,5.8,-,N/A,,Clear,140,2013-03-26 09:35:00
4:55 AM,23.0,12.2,63,30.33,10.0,SSE,8.1,-,N/A,,Clear,150,2013-03-26 09:55:00
5:15 AM,20.8,12.9,71,30.32,10.0,SSE,8.1,-,N/A,,Clear,150,2013-03-26 10:15:00
5:35 AM,23.0,13.5,67,30.32,10.0,SSE,6.9,-,N/A,,Clear,150,2013-03-26 10:35:00
5:55 AM,22.6,13.1,67,30.32,10.0,SE,5.8,-,N/A,,Clear,140,2013-03-26 10:55:00
6:15 AM,21.0,13.1,71,30.32,10.0,SE,5.8,-,N/A,,Clear,130,2013-03-26 11:15:00
6:35 AM,21.7,13.1,69,30.32,10.0,SE,6.9,-,N/A,,Clear,140,2013-03-26 11:35:00
6:55 AM,22.1,12.9,68,30.32,10.0,SSE,8.1,-,N/A,,Clear,150,2013-03-26 11:55:00
7:15 AM,21.7,12.7,68,30.32,10.0,SSE,9.2,-,N/A,,Clear,150,2013-03-26 12:15:00
7:35 AM,22.6,12.7,66,30.32,10.0,SSE,9.2,-,N/A,,Clear,150,2013-03-26 12:35:00
7:55 AM,21.7,13.1,69,30.32,10.0,SSE,9.2,-,N/A,,Clear,150,2013-03-26 12:55:00
8:15 AM,23.9,14.9,69,30.33,10.0,SSE,10.4,-,N/A,,Clear,160,2013-03-26 13:15:00
8:35 AM,27.3,15.8,62,30.32,10.0,SSE,12.7,-,N/A,,Clear,160,2013-03-26 13:35:00
8:55 AM,29.5,15.8,57,30.33,10.0,South,15.0,-,N/A,,Clear,170,2013-03-26 13:55:00
9:15 AM,31.6,15.6,52,30.33,10.0,South,15.0,-,N/A,,Clear,170,2013-03-26 14:15:00
9:35 AM,32.7,15.8,50,30.33,10.0,South,16.1,-,N/A,,Clear,180,2013-03-26 14:35:00
9:55 AM,35.2,15.3,44,30.33,10.0,South,19.6,-,N/A,,Clear,190,2013-03-26 14:55:00
10:15 AM,37.2,15.3,41,30.33,10.0,South,20.7,25.3,N/A,,Clear,190,2013-03-26 15:15:00
10:35 AM,39.0,14.4,37,30.32,10.0,SSW,21.9,26.5,N/A,,Clear,200,2013-03-26 15:35:00
10:55 AM,40.5,14.2,34,30.32,10.0,SSW,19.6,29.9,N/A,,Clear,200,2013-03-26 15:55:00
11:15 AM,42.1,14.0,32,30.32,10.0,SSW,18.4,27.6,N/A,,Clear,200,2013-03-26 16:15:00
11:35 AM,43.7,14.2,30,30.30,10.0,SSW,21.9,27.6,N/A,,Clear,210,2013-03-26 16:35:00
11:55 AM,45.1,14.4,29,30.28,10.0,SSW,24.2,29.9,N/A,,Clear,210,2013-03-26 16:55:00
12:15 PM,47.3,14.5,27,30.27,10.0,SSW,24.2,33.4,N/A,,Clear,200,2013-03-26 17:15:00
12:35 PM,48.6,14.5,26,30.27,10.0,SSW,21.9,31.1,N/A,,Clear,200,2013-03-26 17:35:00
12:55 PM,49.5,13.6,24,30.25,10.0,SSW,24.2,32.2,N/A,,Clear,200,2013-03-26 17:55:00
1:15 PM,50.9,13.6,23,30.24,10.0,SSW,21.9,33.4,N/A,,Clear,210,2013-03-26 18:15:00
1:35 PM,51.4,13.8,22,30.23,10.0,SSW,20.7,34.5,N/A,,Clear,210,2013-03-26 18:35:00
1:55 PM,52.5,14.7,22,30.21,10.0,SSW,24.2,31.1,N/A,,Clear,200,2013-03-26 18:55:00
2:15 PM,53.4,14.5,21,30.20,10.0,SSW,28.8,39.1,N/A,,Clear,210,2013-03-26 19:15:00
2:35 PM,54.7,14.2,20,30.19,10.0,SSW,25.3,33.4,N/A,,Clear,210,2013-03-26 19:35:00
2:55 PM,56.3,13.6,19,30.18,10.0,SSW,23.0,34.5,N/A,,Clear,210,2013-03-26 19:55:00
3:15 PM,57.4,13.6,18,30.16,10.0,SSW,23.0,31.1,N/A,,Clear,210,2013-03-26 20:15:00
3:35 PM,57.9,13.3,17,30.14,10.0,SSW,24.2,39.1,N/A,,Clear,210,2013-03-26 20:35:00
3:55 PM,58.6,12.9,17,30.13,10.0,SSW,29.9,35.7,N/A,,Clear,200,2013-03-26 20:55:00
4:15 PM,59.2,12.4,16,30.12,10.0,SSW,31.1,38.0,N/A,,Clear,210,2013-03-26 21:15:00
4:35 PM,59.9,12.4,15,30.11,10.0,SW,28.8,34.5,N/A,,Clear,220,2013-03-26 21:35:00
4:55 PM,60.1,12.0,15,30.10,10.0,SW,28.8,35.7,N/A,,Clear,220,2013-03-26 21:55:00
5:15 PM,60.1,11.5,15,30.09,10.0,SW,27.6,35.7,N/A,,Clear,220,2013-03-26 22:15:00
5:35 PM,60.1,11.3,15,30.08,10.0,SSW,28.8,35.7,N/A,,Clear,210,2013-03-26 22:35:00
5:55 PM,60.3,10.9,14,30.07,10.0,SW,26.5,33.4,N/A,,Clear,220,2013-03-26 22:55:00
6:15 PM,59.9,10.8,14,30.07,10.0,SW,26.5,32.2,N/A,,Clear,220,2013-03-26 23:15:00
6:35 PM,59.9,11.1,15,30.06,10.0,SSW,24.2,31.1,N/A,,Clear,210,2013-03-26 23:35:00
6:55 PM,59.0,10.8,15,30.06,10.0,SSW,25.3,33.4,N/A,,Clear,200,2013-03-26 23:55:00
7:15 PM,57.0,11.3,16,30.06,10.0,SSW,20.7,26.5,N/A,,Clear,200,2013-03-27 00:15:00
7:35 PM,56.3,11.7,17,30.06,10.0,South,18.4,25.3,N/A,,Clear,190,2013-03-27 00:35:00
7:55 PM,54.3,12.0,19,30.06,10.0,South,16.1,21.9,N/A,,Clear,190,2013-03-27 00:55:00
8:15 PM,52.3,12.7,21,30.06,10.0,South,13.8,-,N/A,,Clear,190,2013-03-27 01:15:00
8:35 PM,52.0,12.6,21,30.06,10.0,South,15.0,-,N/A,,Clear,190,2013-03-27 01:35:00
8:55 PM,51.6,13.1,22,30.06,10.0,South,15.0,-,N/A,,Clear,170,2013-03-27 01:55:00
9:15 PM,51.4,13.1,22,30.06,10.0,South,21.9,26.5,N/A,,Clear,170,2013-03-27 02:15:00
9:35 PM,51.1,13.3,22,30.06,10.0,South,23.0,26.5,N/A,,Clear,170,2013-03-27 02:35:00
9:55 PM,50.4,13.1,23,30.06,10.0,South,21.9,27.6,N/A,,Clear,170,2013-03-27 02:55:00
10:15 PM,50.0,12.9,23,30.07,10.0,South,19.6,28.8,N/A,,Clear,170,2013-03-27 03:15:00
10:35 PM,49.3,13.1,24,30.06,10.0,South,20.7,26.5,N/A,,Clear,170,2013-03-27 03:35:00
10:55 PM,48.9,12.9,24,30.06,10.0,South,23.0,28.8,N/A,,Clear,170,2013-03-27 03:55:00
11:15 PM,48.6,13.1,24,30.06,10.0,South,24.2,28.8,N/A,,Clear,170,2013-03-27 04:15:00
11:35 PM,47.8,13.1,25,30.06,10.0,South,23.0,28.8,N/A,,Clear,170,2013-03-27 04:35:00
11:55 PM,46.8,13.1,26,30.05,10.0,South,23.0,28.8,N/A,,Clear,170,2013-03-27 04:55:00